Wind_Speed
26 26 27 28 28 28 28 29 29 27 26 24 23 23 22 22 22 21 20 20 19 19 18 18 17 17 18 17 17 16 17 17 17 17 17 18 18 18 18 18 18 18 17 17
26 26 27 27 28 28 29 29 28 27 25 24 24 25 24 23 23 22 21 21 21 21 19 18 18 17 18 18 17 17 17 18 18 18 18 19 19 18 18 19 18 18 17 17
26 25 26 26 26 28 29 29 28 27 25 25 26 26 25 24 24 23 22 22 22 21 21 19 18 18 18 17 18 19 19 19 19 19 19 19 18 18 18 18 18 18 18 17
26 26 26 24 25 26 28 28 27 27 26 26 26 26 26 26 25 24 23 23 23 23 22 21 20 19 18 19 18 19 19 20 20 20 20 19 19 19 19 19 18 18 18 18
26 27 27 26 26 27 27 27 27 26 26 25 27 27 26 26 26 26 24 23 24 24 23 22 21 20 20 21 21 20 20 21 21 21 20 20 19 19 19 19 19 18 18 19
27 27 28 27 27 28 28 27 27 27 26 26 27 28 26 26 26 26 24 24 24 24 24 23 23 22 22 22 22 22 22 21 21 21 21 20 19 19 20 20 19 19 19 19
28 28 28 27 27 27 28 27 26 27 27 27 27 28 27 26 25 25 25 24 24 25 24 24 24 24 23 22 21 22 22 21 20 20 21 21 20 21 21 20 19 19 20 20
27 29 28 28 27 28 28 26 26 26 27 26 27 28 28 27 25 24 24 24 24 24 23 23 23 24 23 22 22 21 20 20 20 20 21 22 21 22 22 21 21 21 21 21
26 27 28 28 28 28 27 26 25 25 26 25 26 27 27 27 26 25 25 25 25 25 25 24 24 24 24 22 22 21 20 21 21 21 21 21 22 22 22 22 22 22 22 22
23 25 26 27 27 28 27 26 25 25 25 25 25 26 27 26 27 26 26 26 26 25 24 25 24 25 25 24 23 22 21 22 22 22 22 22 21 21 22 23 23 22 22 22
22 23 25 25 26 26 26 25 25 25 25 25 26 26 27 27 27 27 26 26 26 26 26 25 25 25 24 24 24 23 23 23 24 23 23 23 22 22 23 23 23 23 23 23
22 23 25 25 25 26 25 25 26 26 25 25 25 25 25 25 26 27 26 26 25 24 25 25 25 25 25 26 24 24 24 24 24 24 23 23 23 23 23 23 24 23 23 23
22 21 22 24 25 25 25 25 25 25 25 25 24 24 24 25 26 27 26 26 25 25 25 25 25 25 26 26 25 24 24 24 24 24 24 24 24 24 24 24 23 23 24 23
21 21 20 21 22 22 23 24 25 25 25 25 25 25 25 25 26 27 27 26 26 26 25 25 24 23 23 24 24 23 23 23 24 24 24 25 25 25 24 23 23 23 24 24
20 20 20 20 20 20 21 22 23 24 24 25 25 25 25 25 26 26 26 26 26 26 26 26 25 24 24 25 25 24 23 23 24 24 24 25 25 24 24 24 24 23 24 24
20 21 20 20 20 20 20 20 21 21 22 23 24 24 24 24 24 25 25 25 26 26 26 26 26 25 26 25 24 24 24 24 24 23 24 24 24 24 24 24 24 24 24 24
18 19 20 20 20 20 19 20 20 20 21 22 23 23 23 23 23 23 24 25 25 25 25 26 27 27 27 26 25 25 25 25 25 24 24 25 25 25 25 25 25 25 25 24
16 16 17 18 18 18 19 19 20 21 22 22 22 22 22 22 23 23 24 25 25 25 26 26 27 26 27 27 27 27 27 27 26 26 26 26 26 26 26 26 26 27 27 27
16 16 17 19 19 19 20 19 19 20 20 20 20 20 21 22 23 24 24 25 25 26 27 27 27 27 27 27 26 26 26 27 27 27 27 27 27 27 27 27 28 28 27 28
16 16 17 17 18 18 19 19 19 19 20 20 20 20 21 23 23 23 23 24 24 26 26 26 27 27 28 28 28 28 27 27 27 27 27 28 27 27 27 27 27 28 28 28
14 15 16 16 16 17 17 18 18 18 19 20 20 21 22 22 22 23 23 23 23 23 24 24 25 26 27 27 27 27 27 27 27 28 28 28 28 27 27 28 28 29 28 28
13 14 14 14 15 16 17 17 17 17 18 19 20 20 20 21 21 22 23 24 23 23 22 23 24 24 25 26 26 27 27 27 27 27 27 27 28 27 27 28 27 27 28 28
12 12 13 13 14 15 16 16 17 17 17 18 18 19 19 20 20 21 22 22 22 22 22 22 22 23 24 24 24 25 25 25 25 25 26 26 27 27 26 27 26 26 27 27
13 13 13 13 14 14 15 16 17 17 18 18 18 18 18 19 19 19 20 20 20 21 21 21 22 22 22 22 22 22 23 24 24 25 25 25 25 25 26 25 25 25 26 26
13 12 12 12 13 14 15 16 17 17 17 17 17 17 18 18 18 18 19 19 20 20 20 20 21 20 20 20 20 21 21 22 22 22 22 23 23 24 24 24 24 25 25 26
14 14 13 13 14 15 15 15 15 15 16 16 16 16 16 17 17 17 18 18 19 19 19 19 19 19 19 20 20 20 21 21 22 22 22 22 23 23 24 24 24 25 26 26
14 14 14 13 14 14 13 12 12 13 14 14 14 14 14 14 15 15 16 17 17 17 18 18 18 19 19 20 20 20 20 20 21 21 21 21 22 22 23 23 24 25 25 25
Wind_Direction
239 237 238 239 240 241 243 246 248 249 250 250 251 252 252 251 253 256 258 258 258 258 260 263 266 265 261 263 264 266 270 275 281 283 286 290 294 296 299 301 300 301 303 301
241 238 239 240 240 240 242 245 247 248 249 248 249 250 252 252 253 255 257 257 259 259 261 264 268 267 265 267 265 266 268 272 278 282 286 289 293 296 298 298 298 300 299 298
244 241 241 241 240 241 242 245 247 248 248 247 248 249 251 251 252 255 256 256 257 261 264 265 263 264 264 269 267 266 268 270 273 278 283 287 289 293 296 298 298 297 298 299
243 241 243 243 242 243 244 245 247 247 247 248 248 249 250 250 250 252 254 256 258 261 264 263 262 262 265 266 267 265 267 269 271 274 280 284 286 289 292 294 295 294 295 297
243 242 244 244 245 245 247 246 246 249 250 250 249 249 249 251 252 253 256 257 258 260 262 262 262 265 264 264 266 266 266 267 269 272 277 281 284 287 289 290 292 292 293 293
247 246 247 247 247 247 249 248 246 248 249 249 248 248 249 252 254 253 256 259 258 259 260 259 261 262 263 263 264 266 269 266 267 270 275 279 282 284 286 288 289 290 292 292
250 250 250 249 248 248 249 250 247 247 248 248 248 247 248 250 252 251 255 258 257 257 258 259 260 263 262 263 264 266 265 265 270 273 276 278 281 282 284 284 286 288 290 291
253 253 252 250 250 249 251 251 251 250 249 248 247 245 247 248 251 252 254 254 256 258 259 260 263 264 262 264 264 266 268 268 272 276 276 277 280 282 281 282 285 286 286 287
255 254 253 251 250 250 250 251 251 250 247 247 246 244 245 248 250 250 253 253 255 258 259 261 263 263 262 266 268 267 269 272 273 275 277 277 279 282 282 283 284 285 285 284
256 254 252 250 250 249 249 250 250 249 248 246 244 244 247 250 251 252 254 254 256 259 260 260 261 264 265 269 269 267 269 272 274 275 276 277 279 281 283 284 284 284 283 283
254 254 252 251 248 247 246 247 248 248 249 248 247 248 249 249 250 251 253 256 259 260 261 263 265 268 270 270 267 267 268 271 273 275 275 277 280 283 285 285 284 284 283 284
251 251 252 250 250 249 247 245 245 246 246 246 248 249 249 249 249 250 255 257 258 260 262 263 266 268 270 269 268 267 267 269 271 273 276 278 281 283 286 287 286 283 284 284
251 249 250 249 249 250 248 246 244 244 245 247 247 248 248 248 250 251 254 257 260 263 265 267 268 269 268 266 268 267 267 269 271 273 275 277 279 282 285 286 288 286 282 281
250 251 252 253 251 250 248 246 243 241 242 245 247 248 249 249 251 253 255 257 260 263 264 264 265 265 266 266 269 267 268 269 271 273 275 275 276 280 283 284 285 286 284 281
250 249 250 250 248 248 248 247 244 243 244 245 247 250 252 253 254 255 256 257 259 262 263 262 262 264 265 267 269 268 269 270 271 271 273 274 275 278 281 282 282 284 284 282
248 248 249 250 250 249 248 247 245 245 246 247 249 252 253 254 255 255 258 260 261 261 261 261 263 264 266 268 268 269 270 270 271 273 274 275 276 277 279 280 281 282 284 283
247 246 247 249 251 251 249 248 246 246 248 250 251 251 252 255 257 258 260 261 263 262 260 261 263 264 266 268 268 269 270 270 271 274 275 276 277 277 277 278 280 281 283 283
250 250 251 255 255 253 251 250 248 250 250 249 250 251 255 258 260 260 260 262 263 261 261 262 262 264 267 269 269 267 269 272 272 273 275 276 277 276 276 277 279 281 281 282
252 254 254 255 255 254 254 253 252 252 251 251 254 255 256 259 261 261 261 261 262 262 262 262 264 266 267 269 268 268 270 272 273 273 274 276 277 276 276 276 278 279 281 283
254 253 254 255 254 254 254 254 254 252 251 254 257 260 261 262 263 262 262 263 264 264 263 262 264 266 267 267 268 269 269 271 272 273 274 276 278 278 278 279 279 280 281 283
258 256 256 257 256 254 253 253 253 253 253 255 258 262 263 262 262 262 261 263 265 266 264 262 262 264 265 266 267 267 269 271 272 273 274 275 276 277 278 279 279 280 280 280
260 258 259 260 257 253 252 252 252 252 253 256 260 263 262 262 263 262 261 262 263 265 267 267 265 263 262 263 265 266 269 271 272 273 273 273 274 276 277 278 279 279 281 280
261 262 263 262 258 253 251 252 252 253 255 258 261 263 264 265 264 264 264 263 263 265 266 267 267 265 263 263 265 266 268 270 272 273 273 274 274 274 275 276 278 281 282 281
260 263 264 264 261 255 253 253 254 255 257 260 261 263 265 265 265 264 264 264 265 268 269 268 267 267 266 265 266 268 269 271 273 274 275 277 277 276 276 278 280 282 281 280
261 264 266 267 264 258 257 259 259 258 258 257 259 264 265 264 265 266 265 265 267 270 270 269 267 267 269 268 268 270 272 273 276 276 276 278 278 277 277 279 282 283 282 281
267 267 266 266 263 260 261 260 257 257 258 259 261 264 266 265 264 264 266 267 269 269 269 269 269 270 271 271 271 273 274 276 277 277 276 276 277 277 278 280 282 281 280 279
268 268 266 262 259 258 257 259 261 259 259 261 265 267 267 265 264 267 269 270 270 269 268 270 272 273 272 272 273 274 275 277 280 280 278 278 278 279 280 281 282 282 280 280
Height
5782 5785 5787 5790 5792 5795 5797 5799 5802 5805 5807 5810 5812 5814 5816 5818 5819 5820 5821 5823 5823 5824 5825 5825 5825 5826 5827 5828 5828 5829 5829 5830 5829 5829 5828 5826 5825 5824 5822 5820 5818 5817 5815 5814
5776 5778 5780 5783 5786 5788 5790 5793 5795 5798 5801 5804 5806 5808 5810 5812 5813 5815 5816 5817 5818 5818 5819 5819 5820 5821 5822 5822 5823 5824 5825 5825 5825 5824 5823 5822 5821 5820 5818 5816 5815 5813 5811 5810
5770 5772 5774 5777 5780 5782 5784 5786 5789 5792 5795 5797 5799 5801 5804 5806 5807 5809 5810 5812 5812 5813 5814 5814 5814 5815 5816 5817 5818 5819 5820 5820 5820 5820 5819 5818 5816 5815 5813 5812 5810 5809 5808 5806
5763 5766 5768 5774 5774 5776 5778 5780 5783 5785 5788 5790 5792 5795 5797 5799 5801 5803 5804 5806 5807 5808 5808 5808 5809 5809 5811 5812 5813 5813 5814 5814 5814 5814 5814 5813 5811 5810 5809 5807 5806 5805 5804 5802
5756 5758 5762 5766 5768 5769 5771 5774 5777 5779 5781 5783 5785 5788 5790 5792 5794 5796 5798 5799 5801 5801 5803 5803 5804 5804 5805 5806 5807 5807 5807 5808 5808 5808 5808 5807 5806 5805 5804 5803 5802 5800 5799 5798
5750 5752 5755 5760 5761 5762 5766 5767 5770 5772 5774 5776 5779 5781 5785 5786 5787 5789 5791 5793 5794 5795 5796 5797 5798 5799 5799 5800 5801 5801 5801 5801 5802 5802 5802 5802 5801 5800 5799 5798 5797 5796 5795 5794
5744 5746 5749 5752 5754 5756 5759 5762 5763 5764 5767 5769 5772 5775 5778 5779 5780 5782 5784 5786 5787 5788 5789 5790 5792 5792 5793 5793 5794 5794 5795 5795 5796 5796 5796 5795 5795 5795 5794 5792 5792 5791 5790 5789
5738 5740 5744 5745 5747 5749 5751 5754 5755 5757 5759 5762 5764 5767 5770 5772 5774 5776 5777 5779 5781 5782 5783 5784 5785 5786 5786 5787 5787 5787 5789 5789 5790 5789 5789 5789 5789 5788 5788 5787 5786 5786 5784 5783
5732 5735 5736 5737 5739 5741 5743 5746 5748 5750 5752 5754 5757 5760 5763 5765 5767 5769 5771 5773 5774 5775 5776 5777 5778 5779 5779 5780 5781 5782 5782 5783 5784 5783 5783 5783 5783 5782 5781 5781 5780 5779 5778 5777
5726 5727 5729 5731 5733 5734 5736 5738 5740 5743 5745 5748 5750 5753 5755 5758 5760 5762 5764 5765 5767 5769 5770 5770 5772 5772 5773 5774 5775 5775 5776 5776 5777 5777 5777 5777 5776 5776 5775 5775 5774 5773 5772 5771
5719 5721 5722 5724 5726 5728 5730 5731 5734 5736 5739 5742 5744 5746 5749 5751 5753 5755 5756 5758 5760 5761 5762 5763 5764 5765 5766 5767 5767 5768 5769 5770 5770 5770 5770 5770 5769 5769 5769 5768 5767 5766 5765 5764
5713 5714 5716 5718 5719 5721 5723 5725 5727 5730 5732 5735 5738 5740 5742 5744 5746 5748 5750 5751 5753 5754 5755 5757 5757 5758 5759 5759 5760 5761 5762 5763 5763 5763 5763 5763 5762 5762 5761 5761 5760 5759 5758 5757
5706 5707 5709 5710 5712 5714 5716 5718 5721 5723 5726 5728 5731 5733 5735 5737 5739 5741 5743 5744 5745 5747 5748 5749 5750 5751 5752 5752 5753 5754 5755 5755 5755 5756 5756 5755 5755 5755 5754 5754 5753 5752 5751 5750
5700 5701 5703 5704 5705 5707 5709 5711 5713 5716 5719 5721 5724 5726 5728 5730 5732 5734 5736 5737 5738 5740 5741 5742 5744 5744 5745 5745 5746 5747 5747 5748 5748 5748 5748 5748 5748 5748 5747 5746 5746 5745 5744 5743
5694 5695 5697 5698 5699 5700 5702 5704 5707 5710 5712 5715 5717 5719 5721 5723 5724 5726 5728 5729 5731 5732 5734 5735 5736 5737 5737 5738 5739 5739 5740 5740 5741 5741 5741 5740 5740 5740 5740 5739 5738 5738 5736 5735
5688 5689 5691 5692 5693 5695 5696 5698 5701 5704 5706 5708 5710 5712 5714 5716 5717 5719 5720 5722 5723 5725 5726 5727 5728 5729 5730 5730 5731 5731 5732 5733 5733 5733 5733 5733 5733 5733 5732 5732 5731 5730 5729 5728
5683 5684 5685 5687 5688 5689 5691 5693 5695 5697 5699 5701 5703 5705 5707 5709 5710 5712 5713 5714 5715 5716 5718 5719 5721 5721 5722 5723 5723 5724 5724 5725 5725 5725 5725 5725 5725 5725 5725 5724 5724 5723 5722 5720
5678 5679 5680 5682 5683 5685 5686 5688 5690 5692 5693 5695 5697 5699 5700 5702 5703 5704 5705 5707 5708 5709 5710 5711 5712 5713 5714 5714 5715 5716 5716 5716 5717 5717 5717 5717 5717 5717 5717 5716 5715 5715 5714 5712
5674 5675 5676 5677 5678 5679 5681 5682 5684 5686 5688 5689 5691 5692 5694 5695 5696 5697 5698 5699 5700 5701 5702 5703 5704 5705 5706 5706 5707 5708 5708 5708 5709 5709 5709 5709 5708 5708 5708 5708 5707 5706 5705 5704
5670 5671 5671 5672 5673 5674 5675 5677 5678 5680 5682 5683 5685 5686 5687 5688 5689 5690 5690 5691 5692 5693 5694 5695 5696 5696 5697 5698 5699 5699 5700 5700 5700 5700 5700 5700 5700 5699 5699 5699 5698 5697 5696 5695
5666 5666 5667 5667 5668 5669 5670 5671 5673 5675 5676 5677 5679 5680 5680 5681 5682 5683 5684 5685 5685 5686 5686 5687 5687 5688 5689 5689 5690 5690 5691 5691 5691 5691 5691 5691 5691 5691 5690 5690 5689 5688 5687 5686
5661 5661 5662 5662 5663 5664 5665 5666 5668 5669 5670 5672 5673 5673 5674 5675 5675 5676 5677 5677 5678 5678 5679 5679 5679 5680 5680 5680 5681 5681 5682 5683 5683 5682 5682 5682 5682 5681 5681 5680 5679 5678 5677 5676
5657 5657 5658 5658 5659 5659 5660 5661 5663 5664 5665 5666 5666 5667 5668 5668 5668 5669 5670 5670 5670 5671 5671 5671 5671 5672 5672 5672 5673 5673 5674 5674 5674 5674 5673 5673 5672 5672 5672 5671 5670 5669 5668 5667
5653 5654 5654 5654 5654 5655 5656 5657 5658 5658 5659 5660 5661 5661 5662 5662 5662 5662 5662 5663 5663 5664 5664 5664 5664 5665 5665 5665 5666 5666 5666 5666 5666 5665 5665 5664 5663 5663 5662 5662 5661 5659 5659 5658
5650 5650 5650 5650 5651 5651 5651 5652 5653 5653 5654 5654 5655 5655 5655 5656 5656 5656 5656 5656 5657 5657 5657 5657 5658 5658 5658 5659 5659 5659 5659 5658 5658 5657 5656 5656 5655 5654 5654 5653 5652 5651 5650 5649
5647 5647 5647 5646 5646 5647 5647 5647 5648 5648 5649 5649 5649 5650 5650 5650 5650 5650 5650 5651 5651 5651 5651 5651 5651 5652 5652 5652 5652 5652 5651 5651 5650 5650 5649 5648 5647 5646 5646 5645 5644 5643 5642 5641
5643 5643 5643 5642 5642 5643 5643 5643 5644 5644 5644 5645 5645 5645 5645 5644 5645 5645 5645 5645 5645 5645 5645 5645 5645 5645 5645 5645 5645 5645 5644 5644 5644 5643 5642 5641 5640 5639 5638 5637 5636 5635 5634 5633